Weather History for Perth, WE

Change the Weather History Date:

Monday, June 3, 2013

  Actual Average Record
Temperature  
Mean Temperature 56 °F -  
Max Temperature 67 °F 66 °F 75 °F (2012)
Min Temperature 46 °F 49 °F 32 °F (2005)
Degree Days  
Heating Degree Days 8    
Growing Degree Days 6 (Base 50)    
Moisture  
Dew Point 45 °F    
Average Humidity 60    
Maximum Humidity 93    
Minimum Humidity 33    
Precipitation  
Precipitation 0.00 in 0.22 in - ()
Sea Level Pressure  
Sea Level Pressure 30.27 in    
Wind  
Wind Speed 10 mph ()    
Max Wind Speed 15 mph    
Max Gust Speed 23 mph    
Visibility 8.5 miles    
Events      
Averages and records for this station are not official NWS values.
T = Trace of Precipitation, MM = Missing Value Source: Averaged Metar Reports

Daily Weather History Graph

Daily Weather History Graph

Search for Another Location

Airport:

Trip Planner

Search our weather history database for the weather conditions in past years. The results will help you decide how hot, cold, wet, or windy it might be!

Date:

Astronomy

Jun. 03, 2013 Rise Set
Actual Time 7:09 AM WST 5:19 PM WST
Civil Twilight 6:42 AM WST 5:45 PM WST
Nautical Twilight 6:12 AM WST 6:16 PM WST
Astronomical Twilight 5:42 AM WST 6:45 PM WST
Moon 2:02 AM WST (6/3) 1:49 PM WST (6/3)
Length of Visible Light 11h 03m
Length of Day
10h 10m
Waning Crescent, 26% of the Moon is Illuminated
Jun 3
Waning Crescent
Jun 8
New
Jun 17
First Quarter
Jun 23
Full
Jun 30
Last Quarter

Hourly Weather History & Observations

Time (WST) Temp. Windchill Dew Point Humidity Pressure Visibility Wind Dir Wind Speed Gust Speed Precip Events Conditions
12:00 AM 57 °F - 47 °F 59% 30.37 in 19 mi East 10.4 mph - -   Partly Cloudy
12:00 AM 57.2 °F - 46.4 °F 67% 30.36 in 6.2 mi East 10.4 mph - N/A   Partly Cloudy
12:30 AM 57.2 °F - 46.4 °F 67% 30.33 in 6.2 mi ENE 11.5 mph - N/A   Mostly Cloudy
1:00 AM 57.2 °F - 46.4 °F 67% 30.33 in 6.2 mi ENE 11.5 mph - N/A   Partly Cloudy
1:30 AM 57.2 °F - 46.4 °F 67% 30.33 in 6.2 mi East 9.2 mph - N/A   Scattered Clouds
2:00 AM 57 °F - 46 °F 58% 30.34 in - ENE 10.4 mph - -  
2:00 AM 57.2 °F - 46.4 °F 67% 30.33 in 6.2 mi ENE 10.4 mph - N/A   Scattered Clouds
2:30 AM 57.2 °F - 46.4 °F 67% 30.33 in 6.2 mi ENE 10.4 mph - N/A   Mostly Cloudy
3:00 AM 58 °F - 47 °F 57% 30.34 in 19 mi ENE 12.7 mph - -   Partly Cloudy
3:00 AM 57.2 °F - 46.4 °F 67% 30.33 in 6.2 mi ENE 12.7 mph - N/A   Scattered Clouds
3:30 AM 57.2 °F - 46.4 °F 67% 30.33 in 6.2 mi NE 13.8 mph - N/A   Mostly Cloudy
4:00 AM 57.2 °F - 46.4 °F 67% 30.33 in 6.2 mi ENE 15.0 mph - N/A   Mostly Cloudy
4:30 AM 57.2 °F - 46.4 °F 67% 30.30 in 6.2 mi NE 10.4 mph 23.0 mph N/A   Scattered Clouds
5:00 AM 58 °F - 46 °F 54% 30.33 in - NE 10.4 mph - -  
5:00 AM 57.2 °F - 46.4 °F 67% 30.33 in - NE 10.4 mph - N/A   Clear
5:30 AM 57.2 °F - 46.4 °F 67% 30.33 in 6.2 mi ENE 10.4 mph - N/A   Mostly Cloudy
6:00 AM 58 °F - 46 °F 53% 30.33 in 19 mi ENE 12.7 mph - -   Partly Cloudy
6:00 AM 57.2 °F - 46.4 °F 67% 30.33 in 6.2 mi ENE 12.7 mph - N/A   Mostly Cloudy
6:30 AM 57.2 °F - 44.6 °F 63% 30.33 in 6.2 mi NE 10.4 mph - N/A   Mostly Cloudy
7:00 AM 57.2 °F - 44.6 °F 63% 30.33 in 6.2 mi NE 11.5 mph - N/A   Mostly Cloudy
7:30 AM 57.2 °F - 44.6 °F 63% 30.33 in 6.2 mi NE 10.4 mph - N/A   Partly Cloudy
8:00 AM 58 °F - 44 °F 49% 30.35 in - NE 8.1 mph - -  
8:00 AM 57.2 °F - 44.6 °F 63% 30.33 in 6.2 mi NE 8.1 mph - N/A   Partly Cloudy
8:30 AM 59.0 °F - 44.6 °F 59% 30.33 in 6.2 mi ENE 6.9 mph - N/A   Partly Cloudy
9:00 AM 60 °F - 44 °F 45% 30.35 in 19 mi ENE 8.1 mph - -   Partly Cloudy
9:00 AM 60.8 °F - 44.6 °F 55% 30.33 in 6.2 mi ENE 8.1 mph - N/A   Partly Cloudy
9:30 AM 62.6 °F - 44.6 °F 52% 30.33 in 6.2 mi ENE 11.5 mph - N/A   Partly Cloudy
10:00 AM 62.6 °F - 44.6 °F 52% 30.33 in 6.2 mi NE 13.8 mph - N/A   Partly Cloudy
10:30 AM 64.4 °F - 44.6 °F 49% 30.33 in 6.2 mi ENE 15.0 mph - N/A   Partly Cloudy
11:00 AM 65 °F - 44 °F 35% 30.30 in - NE 13.8 mph - -  
11:00 AM 64.4 °F - 44.6 °F 49% 30.30 in 6.2 mi NE 13.8 mph - N/A   Partly Cloudy
11:30 AM 66.2 °F - 42.8 °F 43% 30.27 in 6.2 mi NE 12.7 mph - N/A   Partly Cloudy
12:00 PM 66 °F - 44 °F 33% 30.28 in 19 mi ENE 12.7 mph - -   Partly Cloudy
12:00 PM 66.2 °F - 44.6 °F 46% 30.27 in 6.2 mi ENE 12.7 mph - N/A   Partly Cloudy
12:30 PM 64.4 °F - 44.6 °F 49% 30.24 in 6.2 mi ENE 13.8 mph - N/A   Scattered Clouds
1:00 PM 66.2 °F - 44.6 °F 46% 30.24 in 6.2 mi NE 13.8 mph - N/A   Scattered Clouds
1:30 PM 66.2 °F - 44.6 °F 46% 30.21 in 6.2 mi NE 10.4 mph - N/A   Mostly Cloudy
2:00 PM 66 °F - 44 °F 34% 30.22 in - ENE 10.4 mph - -  
2:00 PM 66.2 °F - 44.6 °F 46% 30.21 in 6.2 mi ENE 10.4 mph - N/A   Scattered Clouds
2:30 PM 66.2 °F - 42.8 °F 43% 30.18 in 6.2 mi East 12.7 mph - N/A   Partly Cloudy
3:00 PM 66 °F - 44 °F 34% 30.20 in 19 mi East 10.4 mph - -   Partly Cloudy
3:00 PM 66.2 °F - 44.6 °F 46% 30.18 in 6.2 mi East 10.4 mph - N/A   Partly Cloudy
3:30 PM 66.2 °F - 42.8 °F 43% 30.18 in 6.2 mi East 10.4 mph - N/A   Partly Cloudy
4:00 PM 64.4 °F - 44.6 °F 49% 30.18 in 6.2 mi ESE 10.4 mph - N/A   Partly Cloudy
4:30 PM 64.4 °F - 44.6 °F 49% 30.18 in 6.2 mi ESE 9.2 mph - N/A   Partly Cloudy
5:00 PM 63 °F - 45 °F 41% 30.20 in - SE 8.1 mph - -  
5:00 PM 62.6 °F - 44.6 °F 52% 30.18 in 6.2 mi SE 8.1 mph - N/A   Partly Cloudy
5:30 PM 60.8 °F - 46.4 °F 59% 30.18 in 6.2 mi ESE 8.1 mph - N/A   Partly Cloudy
6:00 PM 56 °F - 46 °F 61% 30.19 in 19 mi SE 9.2 mph - -   Partly Cloudy
6:00 PM 57.2 °F - 46.4 °F 67% 30.18 in 6.2 mi SE 9.2 mph - N/A   Partly Cloudy
6:30 PM 55.4 °F - 46.4 °F 72% 30.18 in 6.2 mi SE 8.1 mph - N/A   Partly Cloudy
7:00 PM 55.4 °F - 46.4 °F 72% 30.18 in - South 6.9 mph - N/A   Clear
7:30 PM 51.8 °F - 46.4 °F 82% 30.21 in - South 6.9 mph - N/A   Clear
8:00 PM 54 °F - 45 °F 64% 30.22 in - SSE 6.9 mph - -  
8:00 PM 53.6 °F - 44.6 °F 72% 30.21 in - SSE 6.9 mph - N/A   Clear
8:30 PM 51.8 °F - 44.6 °F 76% 30.21 in - SSW 8.1 mph - N/A   Clear
9:00 PM 49 °F - 45 °F 80% 30.23 in 19 mi SSW 8.1 mph - -   Haze
9:00 PM 50.0 °F - 44.6 °F 82% 30.21 in - SSW 8.1 mph - N/A   Clear
9:30 PM 50.0 °F - 44.6 °F 82% 30.21 in - SSW 5.8 mph - N/A   Clear
10:00 PM 48.2 °F - 44.6 °F 87% 30.21 in - SSW 5.8 mph - N/A   Clear
10:30 PM 46.4 °F 44.3 °F 44.6 °F 93% 30.21 in - NW 4.6 mph - N/A   Clear
11:00 PM 49 °F - 44 °F 78% 30.22 in - NNW 3.5 mph - -  
11:00 PM 48.2 °F - 44.6 °F 87% 30.21 in - NNW 3.5 mph - N/A   Clear
11:30 PM 48.2 °F - 44.6 °F 87% 30.18 in - Calm Calm - N/A   Clear